ASA65 PAJN-PANC

Flight info

Callsign ASA65
Flight time N/A
Altitude 34000
Route CHLKT2 ALATY JOH WITTI5
Aircraft B737/M-SDE2E3FGHIRWXY/LB1

Departure

Time 2026-04-30 12:35
Airport Juneau International Airport (PAJN)

Arrival

Time N/A
Airport Ted Stevens Anchorage International Airport (PANC)
Time Latitude Longitude Altitude Speed Heading
2026-04-30 11:49 58.35872 -134.58462 33 ft 0 kts 103°
2026-04-30 12:17 58.35873 -134.58464 33 ft 2 kts 103°
2026-04-30 12:18 58.35876 -134.58504 33 ft 3 kts 94°
2026-04-30 12:18 58.35876 -134.58548 33 ft 3 kts 85°
2026-04-30 12:18 58.35874 -134.58592 33 ft 3 kts 86°
2026-04-30 12:18 58.35876 -134.58631 33 ft 3 kts 136°
2026-04-30 12:19 58.35879 -134.58637 33 ft 0 kts 180°
2026-04-30 12:23 58.35877 -134.58637 33 ft 1 kts 180°
2026-04-30 12:23 58.35859 -134.58638 33 ft 4 kts 181°
2026-04-30 12:23 58.35825 -134.58638 33 ft 6 kts 176°
2026-04-30 12:23 58.35778 -134.58635 33 ft 7 kts 191°
2026-04-30 12:24 58.35760 -134.58719 33 ft 9 kts 279°
2026-04-30 12:24 58.35779 -134.58864 33 ft 14 kts 284°
2026-04-30 12:24 58.35807 -134.59073 33 ft 18 kts 284°
2026-04-30 12:24 58.35841 -134.59308 33 ft 18 kts 284°
2026-04-30 12:25 58.35871 -134.59526 33 ft 14 kts 284°
2026-04-30 12:25 58.35859 -134.59628 32 ft 0 kts 225°
2026-04-30 12:26 58.35845 -134.59644 32 ft 5 kts 203°
2026-04-30 12:26 58.35805 -134.59669 33 ft 7 kts 197°
2026-04-30 12:27 58.35772 -134.59621 34 ft 7 kts 105°
2026-04-30 12:27 58.35768 -134.59590 34 ft 0 kts 105°
2026-04-30 12:34 58.35760 -134.59534 34 ft 19 kts 104°
2026-04-30 12:34 58.35648 -134.58739 32 ft 103 kts 105°
2026-04-30 12:35 58.35412 -134.57020 242 ft 154 kts 105°
2026-04-30 12:35 58.35160 -134.55045 1305 ft 151 kts 108°
2026-04-30 12:35 58.34805 -134.53203 2264 ft 150 kts 114°
2026-04-30 12:35 58.34152 -134.51392 2785 ft 187 kts 136°
2026-04-30 12:36 58.33128 -134.49569 3282 ft 216 kts 139°
2026-04-30 12:36 58.31968 -134.47433 3721 ft 247 kts 138°
2026-04-30 12:36 58.30731 -134.45120 4862 ft 250 kts 138°
2026-04-30 12:36 58.29528 -134.42729 6082 ft 250 kts 136°
2026-04-30 12:37 58.28341 -134.40230 7061 ft 259 kts 137°
2026-04-30 12:37 58.27122 -134.37663 8095 ft 263 kts 137°
2026-04-30 12:37 58.25878 -134.35053 9129 ft 268 kts 138°
2026-04-30 12:37 58.24608 -134.32423 10102 ft 273 kts 141°
2026-04-30 12:38 58.23096 -134.30155 10628 ft 284 kts 159°
2026-04-30 12:38 58.21204 -134.28999 11270 ft 289 kts 174°
2026-04-30 12:38 58.19206 -134.29000 12222 ft 287 kts 192°
2026-04-30 12:38 58.17309 -134.30143 13140 ft 289 kts 208°
2026-04-30 12:39 58.15678 -134.32413 14001 ft 295 kts 225°
2026-04-30 12:39 58.14484 -134.35597 14796 ft 302 kts 242°
2026-04-30 12:39 58.13876 -134.39436 15626 ft 311 kts 260°
2026-04-30 12:39 58.13981 -134.43580 16450 ft 322 kts 277°
2026-04-30 12:40 58.14740 -134.47643 17182 ft 335 kts 288°
2026-04-30 12:40 58.15670 -134.51831 17532 ft 354 kts 288°
2026-04-30 12:40 58.16614 -134.56207 18194 ft 362 kts 287°
2026-04-30 12:40 58.17554 -134.60643 18923 ft 364 kts 287°
2026-04-30 12:41 58.18588 -134.65063 19601 ft 374 kts 296°
2026-04-30 12:41 58.20279 -134.68930 20281 ft 386 kts 309°
2026-04-30 12:41 58.22230 -134.72473 20945 ft 392 kts 311°
2026-04-30 12:41 58.24244 -134.76015 21566 ft 397 kts 311°
2026-04-30 12:42 58.26281 -134.79594 22225 ft 402 kts 311°
2026-04-30 12:42 58.28333 -134.83235 22869 ft 406 kts 310°
2026-04-30 12:42 58.30397 -134.86935 23490 ft 410 kts 310°
2026-04-30 12:42 58.32476 -134.90692 24016 ft 414 kts 310°
2026-04-30 12:43 58.34560 -134.94478 24583 ft 416 kts 310°
2026-04-30 12:43 58.36651 -134.98286 25168 ft 417 kts 310°
2026-04-30 12:43 58.38753 -135.02119 25714 ft 419 kts 310°
2026-04-30 12:43 58.40861 -135.05972 26244 ft 421 kts 310°
2026-04-30 12:44 58.42941 -135.09807 26760 ft 421 kts 308°
2026-04-30 12:44 58.44746 -135.14134 27271 ft 415 kts 299°
2026-04-30 12:44 58.46313 -135.18763 27788 ft 416 kts 297°
2026-04-30 12:44 58.47829 -135.23467 28309 ft 416 kts 297°
2026-04-30 12:45 58.49336 -135.28181 28912 ft 414 kts 297°
2026-04-30 12:45 58.50847 -135.32863 29583 ft 412 kts 298°
2026-04-30 12:45 58.52361 -135.37500 30269 ft 409 kts 298°
2026-04-30 12:45 58.53869 -135.42085 30880 ft 406 kts 299°
2026-04-30 12:46 58.55379 -135.46657 31356 ft 407 kts 299°
2026-04-30 12:46 58.56894 -135.51242 31813 ft 408 kts 299°
2026-04-30 12:46 58.58409 -135.55824 32351 ft 406 kts 299°
2026-04-30 12:46 58.59915 -135.60388 32875 ft 404 kts 299°
2026-04-30 12:47 58.61417 -135.64947 33367 ft 404 kts 299°
2026-04-30 12:47 58.62916 -135.69508 33839 ft 404 kts 299°
2026-04-30 12:47 58.63928 -135.72597 34078 ft 404 kts 299°
2026-04-30 12:47 58.65427 -135.77177 34074 ft 406 kts 299°